Hourly Data Report for October 29, 2013

All times are specified in Local Standard Time (LST). Add 1 hour to adjust for Daylight Saving Time where and when it is observed.

FORT LIARD
NORTHWEST TERRITORIES

60°14'00.000" N
123°28'00.000" W
213.40 m
2201579
71497
WJL

Download Data

Hourly Data (October 2013)
Hourly Data Report for October 29, 2013
Temp Definition
°C
Dew Point Temp Definition
°C
Rel Hum Definition
%
Wind Dir Definition
10's deg

Wind Spd Definition
km/h
Visibility Definition
km
Stn Press Definition
kPa
Hmdx Definition


Wind Chill Definition


Weather Definition


TIME
00:00 1.6 0.8 94   0   97.68     LegendNANA
01:00 1.8 1.0 94 21 2   97.58     LegendNANA
02:00 10.5 3.0 60 21 9   97.51     LegendNANA
03:00 12.3 2.7 52 24 28   97.48     LegendNANA
04:00 8.7 2.7 66 21 15   97.44     LegendNANA
05:00 7.1 2.3 71 22 11   97.39     LegendNANA
06:00 6.5 2.1 73 22 17   97.33     LegendNANA
07:00 5.4 1.7 77 23 11   97.29     LegendNANA
08:00 4.1 1.3 82   0   97.21     LegendNANA
09:00 9.4 1.4 57 25 9   97.16     LegendNANA
10:00 10.8 0.1 48 24 9   97.13     LegendNANA
11:00 14.1 -1.4 34 23 20   97.16     LegendNANA
12:00 14.7 -1.0 34 24 15   97.17     LegendNANA
13:00 14.9 -1.8 32 26 11   97.14     LegendNANA
14:00 14.1 -2.3 32 26 28   97.12     LegendNANA
15:00 13.1 -3.1 32 26 17   97.24     LegendNANA
16:00 13.3 -2.8 33 25 22   97.25     LegendNANA
17:00 12.3 -2.8 35 26 20   97.27     LegendNANA
18:00 11.6 -2.8 36 26 30   97.20     LegendNANA
19:00 11.0 -2.7 38 25 26   97.31     LegendNANA
20:00 10.4 -2.8 39 25 20   97.44     LegendNANA
21:00 9.5 -2.8 42 24 19   97.50     LegendNANA
22:00 9.2 -3.0 42 25 24   97.47     LegendNANA
23:00 9.9 -3.5 39 26 26   97.47     LegendNANA

Notes on Data Quality.

Legend

  • E = Estimated
  • M = Missing
  • NA = Not Available
  • ‡ = Partner data that is not subject to review by the National Climate Archives
Date modified: